Overview Statistics Trail Chart Weather Telemetry Raw packets
 

This is the latest recevied weather packets stored in our database for station/object SQ3MKP-13. If no packets are shown the sender has not sent any weather packets the latest 10 day(s).

<< 1 2 3 4 5 6 7 >>
Time Temp. Humidity Pressure Rain* Wind** Luminosity Snow
1788591068 15.56° C 79% 1003.4 hPa - - 101 W/m² -
1788590767 15.56° C 80% 1003.3 hPa - - 93 W/m² -
1788590466 15.56° C 80% 1003.4 hPa - - 70 W/m² -
1788590165 15.56° C 80% 1003.3 hPa - - 51 W/m² -
1788589864 15.56° C 79% 1003.2 hPa - - 80 W/m² -
1788589563 15.56° C 79% 1003.2 hPa - - 134 W/m² -
1788589262 15.56° C 80% 1003.2 hPa - - 61 W/m² -
1788588961 15.56° C 80% 1003.1 hPa - - 61 W/m² -
1788588660 15.56° C 80% 1003.2 hPa - - 57 W/m² -
1788588360 15.56° C 80% 1003.2 hPa - - 16 W/m² -
1788588059 15.56° C 79% 1003.1 hPa - - 44 W/m² -
1788587757 15.56° C 80% 1003 hPa - - 39 W/m² -
1788587456 15.56° C 79% 1002.9 hPa - - 62 W/m² -
1788587155 15.56° C 80% 1003 hPa - - 116 W/m² -
1788586854 15.56° C 80% 1002.8 hPa - - 65 W/m² -
1788586554 15.56° C 81% 1002.8 hPa - - 82 W/m² -
1788586252 15.56° C 81% 1002.6 hPa - - 60 W/m² -
1788585951 15.56° C 81% 1002.6 hPa - - 62 W/m² -
1788585650 15.56° C 81% 1002.5 hPa - - 56 W/m² -
1788585349 15.56° C 81% 1002.4 hPa - - 57 W/m² -
1788585049 15° C 82% 1002.4 hPa - - 47 W/m² -
1788584748 15° C 81% 1002.3 hPa - - 41 W/m² -
1788584446 15° C 81% 1002.2 hPa - - 34 W/m² -
1788584145 15° C 82% 1002.3 hPa - - 32 W/m² -
1788583844 15° C 82% 1002.3 hPa - - 27 W/m² -

* Rain since midnight (hover to see other rain measurements)
** Current wind speed in m/s (hover to see current wind gust speed)